RH
55 54 53 52 51 50 50 49 49 49 47 44 39 35 31 27 24 21 20 18 17 15 14 13 13 13 13 11 10 9 9 8 7 6 6 6 6 7 7 7 7 7
53 52 52 51 50 49 48 47 48 48 45 41 36 31 27 24 22 19 18 17 15 14 12 12 12 12 12 11 10 9 9 8 7 7 6 6 6 7 7 7 7 7
50 50 50 50 49 48 47 45 45 44 40 35 30 26 23 21 19 17 16 15 13 12 11 11 11 11 11 11 9 9 9 8 8 7 6 6 6 6 7 7 7 7
48 48 48 48 48 46 44 42 41 37 32 28 24 22 20 18 16 15 14 12 11 11 10 10 10 10 11 10 9 9 9 8 8 7 6 6 6 6 7 7 7 8
46 46 46 46 45 42 39 36 33 28 25 22 19 18 17 15 14 13 12 11 10 9 9 9 9 9 10 9 8 8 8 8 8 7 6 6 6 6 6 7 7 8
46 45 45 43 40 36 32 29 25 21 19 17 16 15 14 13 12 11 10 9 9 8 8 8 8 9 9 9 8 8 8 8 7 7 7 6 6 6 6 6 7 8
46 45 42 38 33 28 24 21 18 16 15 13 13 12 11 10 10 9 8 8 8 8 7 7 8 8 8 8 7 7 8 8 8 7 6 6 6 6 6 6 6 7
43 40 34 28 24 20 17 15 14 12 11 11 10 10 9 9 8 8 8 7 7 7 7 7 7 7 8 8 7 7 8 8 7 7 6 6 6 5 6 6 6 7
36 30 24 19 16 14 12 11 11 10 9 9 9 8 8 8 7 7 7 7 6 6 6 6 7 7 7 7 7 6 7 7 7 8 7 6 6 6 6 6 6 6
27 21 17 15 13 11 10 9 9 8 8 8 8 7 7 7 7 7 6 6 6 6 6 6 6 7 7 7 6 6 7 7 7 7 7 6 6 6 6 6 6 6
18 16 14 12 11 9 9 8 8 7 7 7 7 7 6 6 6 6 6 6 6 6 6 6 6 6 6 6 6 6 7 7 7 7 7 6 6 6 6 6 6 6
12 11 10 9 9 8 8 7 7 7 6 6 6 6 6 6 6 6 6 6 6 5 5 5 5 5 6 6 5 6 7 7 7 7 7 6 6 6 6 6 6 6
10 9 9 8 8 7 7 7 6 6 6 6 6 6 6 6 6 5 6 5 5 5 4 5 5 5 5 5 5 6 6 7 7 7 7 6 6 6 6 7 7 6
9 8 8 7 7 6 6 6 5 5 5 5 6 6 5 5 5 5 5 5 5 4 4 4 5 5 5 5 5 6 6 7 7 7 7 6 6 6 7 7 7 7
7 7 7 6 6 6 5 5 5 5 5 5 5 5 5 5 5 5 5 4 4 4 4 4 4 5 5 4 5 6 6 6 6 7 7 6 6 6 7 7 7 7
6 6 6 5 5 4 4 4 4 4 4 4 4 4 4 4 4 4 4 4 4 4 4 4 4 4 4 4 5 5 6 6 6 6 6 6 6 6 7 7 7 8
5 5 4 4 3 3 3 3 3 3 3 3 3 3 3 3 3 3 3 3 3 3 3 4 4 4 4 4 5 5 6 6 6 6 6 6 6 6 7 8 8 8
4 3 3 3 3 3 3 2 2 2 2 2 3 3 3 3 3 3 3 3 3 3 4 4 4 4 4 4 5 5 5 6 6 6 6 6 6 6 7 8 8 9
3 3 3 3 3 2 2 2 2 2 2 2 2 2 2 2 3 3 3 3 3 3 3 3 3 4 4 4 5 5 5 6 6 6 6 6 6 6 7 8 8 9
2 2 2 2 2 2 2 2 2 2 2 2 2 2 3 2 3 3 3 3 3 3 3 3 3 4 4 4 5 5 5 5 6 6 6 6 6 6 7 9 9 10
2 2 2 2 2 2 2 2 2 2 2 2 2 2 3 2 3 3 3 3 3 3 3 3 3 3 4 5 5 5 5 6 6 6 6 6 6 6 7 9 9 10
2 2 2 2 2 2 2 2 2 2 2 2 2 2 2 3 3 3 3 3 3 3 3 3 3 3 4 5 5 5 5 6 6 6 6 6 6 7 8 9 9 10
2 2 2 2 2 2 2 2 2 2 2 2 2 2 2 3 3 3 3 3 3 3 3 3 3 3 4 5 5 5 5 6 6 6 6 6 6 7 8 9 9 10
2 2 2 2 2 2 2 2 2 2 2 2 2 2 2 2 2 3 3 3 3 3 3 3 3 3 4 5 5 5 5 6 6 6 6 6 6 7 9 10 10 10
2 2 2 2 2 2 2 2 2 2 2 2 2 2 2 2 2 3 3 3 3 3 3 3 3 3 4 5 5 5 6 6 6 6 6 6 6 8 9 10 10 10
2 2 2 2 2 2 2 2 2 2 2 2 2 2 2 2 3 3 3 3 3 3 3 3 3 3 4 5 5 5 6 6 6 6 6 6 7 8 10 10 10 11
Wind_Speed
113 114 114 114 114 113 113 113 113 113 111 109 107 103 99 96 92 88 85 82 79 76 72 68 65 65 66 65 62 59 58 57 56 56 55 54 54 55 57 59 61 63
116 116 116 116 116 116 115 114 114 114 112 109 106 103 99 95 92 88 85 82 79 76 72 67 64 63 65 66 62 59 57 56 56 56 55 55 54 54 55 58 59 62
118 118 118 118 118 117 117 116 115 114 111 108 105 101 97 94 91 88 84 82 78 75 71 66 63 62 64 66 63 59 57 56 55 56 56 55 54 53 54 56 58 60
119 119 120 120 120 119 118 117 115 113 110 106 103 99 96 93 90 87 84 81 77 74 69 65 63 62 63 65 63 59 57 56 55 55 56 55 54 53 53 55 57 59
122 121 121 121 121 120 118 117 114 111 107 104 100 98 95 92 89 85 82 79 76 72 68 64 62 61 62 65 64 59 57 56 55 55 56 55 54 53 52 54 55 57
124 124 123 123 122 120 118 116 113 109 105 101 98 96 93 90 87 83 80 77 74 71 67 64 62 61 61 64 64 59 57 56 55 55 55 55 55 53 53 53 54 56
126 125 125 123 121 119 116 113 110 106 102 98 96 93 91 88 84 80 77 75 72 69 67 64 63 61 61 64 64 58 56 56 55 55 55 55 55 54 53 53 54 54
127 126 124 122 119 116 113 110 106 103 99 95 93 91 87 84 81 78 76 74 71 68 66 64 63 62 61 64 64 58 55 56 55 55 55 55 55 54 53 53 54 54
127 125 122 119 116 112 109 106 102 99 95 92 90 88 85 82 80 77 75 73 70 68 66 64 63 62 61 64 64 58 55 56 55 55 56 55 55 54 53 53 54 54
126 123 120 117 114 110 106 103 99 96 92 90 88 86 84 81 79 77 74 72 70 68 66 64 62 61 61 64 63 57 55 55 54 55 56 55 55 54 53 53 55 54
121 119 117 114 110 107 103 100 96 93 90 88 87 85 83 81 79 76 73 71 70 68 66 63 61 60 61 64 61 56 54 55 54 55 56 55 54 54 53 53 55 54
115 112 110 108 106 103 101 98 95 92 89 88 86 84 82 80 78 75 72 70 69 67 65 62 60 59 61 63 60 54 53 54 54 55 56 55 54 53 52 53 55 55
110 107 106 105 104 102 99 97 94 90 88 86 85 84 82 79 76 74 71 70 68 66 64 61 59 59 60 61 57 53 53 54 54 54 56 55 54 53 52 53 55 55
105 103 102 101 100 99 96 94 91 88 84 82 81 81 80 77 74 71 70 69 67 65 62 60 59 58 59 59 55 51 52 53 53 54 55 55 53 52 52 53 54 55
99 98 97 96 95 94 93 91 88 85 82 79 77 77 76 73 70 68 68 67 65 63 61 59 58 58 58 56 53 50 51 53 53 54 55 54 53 52 52 52 53 54
94 94 93 92 90 89 87 86 84 81 78 76 74 73 72 69 66 65 66 66 63 61 59 58 57 57 56 54 51 49 50 52 53 54 54 53 52 52 51 52 52 53
89 89 90 89 88 85 83 82 79 77 75 73 71 70 68 66 62 62 63 63 61 60 58 57 57 56 55 52 49 48 50 52 53 54 54 52 52 51 51 51 51 52
85 84 85 85 84 83 81 79 76 74 71 69 68 66 65 62 59 59 61 61 59 58 57 56 56 55 53 50 47 47 50 52 53 53 53 52 51 51 50 50 50 52
82 80 79 79 79 78 77 75 73 71 69 67 65 63 61 59 57 57 58 58 57 56 55 55 55 54 52 49 46 47 49 51 52 52 51 51 51 51 49 49 50 51
78 76 75 74 74 73 71 70 69 67 66 64 62 60 58 56 55 55 56 56 55 55 55 55 54 52 50 48 46 47 49 50 51 51 50 51 51 50 48 48 49 51
74 73 72 71 70 70 68 66 65 63 61 60 59 57 55 54 53 54 54 53 54 54 54 54 53 51 49 46 45 47 48 49 50 50 50 50 50 49 48 47 49 51
72 71 69 67 66 67 66 63 61 60 57 56 55 54 52 52 52 52 51 51 52 53 53 53 52 50 48 45 45 47 47 48 49 49 49 49 49 48 47 47 48 50
70 68 67 65 63 63 63 61 59 57 55 53 52 51 50 50 51 51 50 50 51 51 51 51 51 49 47 45 45 46 46 47 48 48 48 48 47 47 47 47 48 49
68 66 64 62 61 60 60 58 56 55 53 51 50 49 48 49 49 49 49 49 49 49 50 50 50 48 46 45 45 46 45 46 47 47 48 47 47 46 46 46 47 48
67 64 62 61 59 58 57 55 53 52 51 49 48 48 47 48 48 48 48 48 48 48 49 49 48 47 45 44 45 45 45 45 46 46 47 47 46 45 45 46 47 47
66 63 61 60 58 55 54 53 51 50 49 48 47 46 46 47 47 46 46 46 46 47 47 47 47 45 44 44 45 44 44 44 45 46 46 45 44 44 45 46 47 46
Wind_Direction
310 309 310 309 309 309 309 309 309 309 309 309 308 308 308 307 306 305 304 303 301 300 298 297 295 293 291 289 287 284 280 277 274 271 268 264 259 255 251 247 244 242
309 309 309 309 309 309 308 308 308 308 308 308 307 307 306 305 304 303 302 301 300 299 297 296 294 292 289 288 286 283 280 277 274 271 268 264 259 255 252 248 245 243
309 309 308 308 308 308 307 307 307 307 307 306 306 305 305 304 303 302 301 300 299 297 296 295 293 290 288 286 285 283 279 276 273 271 268 264 260 254 251 249 246 244
309 308 308 308 307 307 307 307 306 306 306 305 305 304 303 302 302 301 300 298 297 297 296 294 292 289 287 285 284 282 279 275 273 271 268 265 260 255 251 248 246 244
308 308 308 307 307 306 306 306 305 305 304 304 303 303 302 301 300 299 298 297 297 296 295 294 291 288 286 284 283 281 278 275 272 270 268 265 261 256 251 248 245 243
308 308 307 306 306 305 305 304 304 304 303 303 302 301 300 299 299 298 297 297 296 295 294 293 290 287 285 283 282 280 277 274 272 269 268 265 261 257 252 248 244 241
307 307 306 305 305 304 304 303 303 303 302 301 301 300 299 298 297 297 297 296 295 294 293 291 289 286 283 281 280 279 277 274 271 269 267 264 261 258 254 250 245 241
306 305 305 304 303 303 303 302 302 302 301 301 300 299 297 297 297 296 296 295 294 293 292 290 287 285 282 280 279 278 276 273 271 269 267 264 261 258 254 251 248 242
305 304 304 304 303 303 302 302 301 301 300 300 299 298 297 297 296 295 295 294 293 292 290 288 285 283 280 278 278 277 275 272 270 268 266 264 261 258 255 252 250 245
305 304 304 304 303 302 302 301 300 300 299 298 298 297 296 296 295 295 294 293 292 290 288 286 284 281 278 277 277 276 274 271 269 267 266 264 261 258 255 253 251 247
304 303 303 302 302 301 300 300 299 299 298 298 297 296 295 295 294 294 293 292 291 288 286 284 282 279 276 275 275 275 272 270 268 266 265 263 261 258 255 253 252 249
303 303 302 302 301 300 300 299 299 298 298 297 296 295 295 294 293 293 292 291 289 286 284 283 280 277 275 274 274 273 270 269 267 265 264 263 260 258 255 253 252 250
303 302 302 301 300 300 299 298 297 297 296 296 295 294 293 293 292 292 291 289 287 285 283 281 279 276 273 273 273 271 269 267 266 264 263 262 260 257 254 252 252 251
302 301 300 299 299 298 297 297 296 295 295 294 293 292 291 291 290 290 289 286 284 283 282 280 277 275 272 272 272 270 267 265 264 263 262 261 260 257 254 252 251 251
302 300 299 298 297 296 296 295 295 294 294 292 291 290 289 288 288 288 286 284 282 281 280 278 276 273 272 271 271 268 265 264 263 261 261 260 259 256 253 251 250 250
302 301 299 298 296 295 295 294 294 293 293 291 290 288 287 287 287 285 283 281 281 280 278 276 274 272 271 270 269 266 264 262 261 260 260 259 258 255 252 250 249 249
302 301 300 298 297 296 295 294 294 293 292 290 289 287 287 286 285 283 281 280 279 278 276 274 273 271 271 270 267 264 262 261 260 259 259 258 257 254 251 249 248 248
302 301 299 297 297 296 295 294 294 292 291 289 288 287 286 285 283 281 279 278 277 276 274 273 271 270 270 269 266 262 260 259 259 258 258 258 256 253 250 249 247 247
303 301 299 297 296 295 294 293 292 291 290 289 288 287 285 284 282 279 277 276 275 274 273 271 270 270 269 267 264 260 258 258 257 257 257 256 255 251 249 247 246 246
303 302 300 298 297 296 294 293 292 290 290 289 288 287 285 283 281 278 276 275 273 272 271 270 269 269 268 266 262 259 257 257 256 256 255 255 254 251 247 246 245 245
305 303 301 300 299 297 295 294 292 291 290 289 288 286 284 282 279 276 275 273 272 270 269 269 269 268 267 264 261 258 257 256 255 255 254 254 253 250 246 244 244 244
307 305 303 302 300 298 296 295 293 292 290 288 287 285 283 280 277 275 273 271 270 269 269 269 268 267 265 263 259 257 256 254 254 254 253 252 251 249 246 243 242 243
308 306 304 303 301 298 296 295 294 293 291 288 286 283 280 278 275 274 272 270 269 268 268 268 267 266 264 261 258 257 255 253 253 253 252 252 250 248 245 243 242 242
309 307 305 304 302 299 297 296 295 293 291 288 285 282 279 276 274 273 271 270 269 268 267 267 266 265 263 260 257 256 254 253 252 252 251 251 249 246 244 243 242 241
309 308 307 305 303 300 298 296 295 293 291 288 285 282 279 276 274 273 271 269 268 267 266 266 265 264 261 258 256 255 254 252 251 251 250 250 248 245 243 242 242 241
310 309 308 306 304 302 300 297 295 293 291 288 285 282 279 277 275 273 271 269 268 267 266 265 264 262 259 257 255 255 253 252 251 249 249 248 247 244 242 242 241 241